Temp
-10 -10 -10 -9 -9 -9 -9 -9 -9 -8 -8 -8 -8 -8 -8 -8 -7 -8 -8 -8 -9 -10 -10 -10 -10 -10 -10 -10 -10 -10 -10 -10 -9 -9 -9 -9 -9 -9 -9 -9 -9 -9 -9 -9 -9
-10 -10 -10 -9 -9 -9 -9 -9 -9 -9 -9 -8 -8 -8 -8 -8 -8 -8 -8 -8 -9 -10 -10 -10 -10 -10 -10 -10 -10 -10 -10 -10 -10 -10 -10 -9 -9 -9 -9 -9 -9 -9 -9 -9 -9
-10 -10 -10 -10 -9 -9 -9 -9 -9 -9 -9 -9 -9 -9 -9 -8 -8 -8 -9 -9 -10 -11 -11 -10 -10 -10 -10 -10 -10 -10 -10 -10 -10 -9 -9 -9 -9 -9 -9 -9 -9 -9 -9 -9 -9
-10 -10 -10 -10 -10 -10 -9 -9 -9 -9 -9 -9 -9 -9 -9 -8 -9 -9 -9 -10 -11 -11 -11 -11 -11 -10 -10 -10 -10 -10 -10 -10 -10 -10 -9 -9 -9 -9 -9 -9 -9 -9 -9 -9 -9
-10 -10 -10 -10 -10 -10 -10 -9 -9 -9 -10 -9 -9 -9 -9 -9 -9 -10 -10 -11 -11 -12 -12 -11 -11 -11 -11 -10 -10 -10 -10 -10 -10 -10 -9 -9 -9 -9 -9 -9 -9 -9 -9 -9 -9
-11 -11 -11 -10 -10 -10 -10 -10 -10 -10 -10 -10 -10 -10 -10 -9 -10 -10 -11 -11 -11 -11 -11 -12 -11 -11 -11 -11 -10 -10 -10 -10 -10 -10 -10 -10 -9 -9 -9 -9 -9 -9 -9 -9 -9
-11 -11 -11 -11 -11 -10 -10 -10 -10 -10 -10 -10 -10 -10 -10 -10 -10 -10 -11 -11 -11 -11 -11 -11 -11 -11 -11 -11 -11 -10 -10 -10 -10 -10 -10 -10 -10 -10 -10 -10 -10 -10 -10 -10 -10
-12 -11 -11 -11 -11 -11 -11 -10 -10 -10 -11 -10 -10 -10 -10 -10 -10 -10 -11 -11 -11 -11 -11 -11 -11 -11 -11 -11 -11 -11 -10 -10 -10 -10 -10 -10 -10 -10 -10 -10 -10 -10 -10 -10 -10
-12 -12 -11 -11 -11 -11 -11 -11 -11 -11 -11 -11 -11 -10 -10 -10 -10 -10 -11 -11 -11 -11 -11 -11 -11 -11 -11 -10 -10 -10 -10 -11 -11 -11 -11 -11 -11 -10 -10 -10 -10 -10 -11 -11 -11
-12 -12 -12 -12 -11 -11 -11 -11 -11 -11 -11 -11 -11 -11 -10 -10 -10 -10 -10 -10 -10 -10 -11 -11 -11 -11 -11 -10 -10 -10 -10 -11 -11 -10 -11 -11 -11 -11 -11 -10 -11 -11 -11 -11 -11
-12 -12 -12 -12 -12 -12 -12 -12 -11 -11 -11 -11 -11 -11 -10 -10 -10 -11 -10 -10 -10 -10 -11 -10 -10 -11 -11 -11 -10 -10 -10 -10 -11 -11 -11 -10 -10 -11 -11 -10 -11 -11 -11 -11 -11
-12 -12 -12 -12 -12 -12 -12 -12 -12 -11 -11 -11 -11 -11 -11 -11 -10 -10 -11 -10 -10 -10 -11 -10 -10 -11 -10 -10 -10 -10 -10 -10 -10 -10 -10 -10 -10 -11 -11 -11 -11 -11 -11 -11 -11
-12 -12 -12 -12 -12 -12 -12 -12 -12 -12 -11 -11 -11 -11 -11 -11 -10 -10 -11 -11 -11 -11 -11 -11 -10 -11 -10 -10 -11 -10 -10 -11 -11 -11 -10 -10 -10 -10 -10 -11 -11 -11 -11 -11 -11
-13 -13 -13 -13 -12 -12 -12 -12 -12 -12 -12 -11 -12 -12 -11 -11 -11 -10 -11 -11 -11 -11 -11 -11 -11 -11 -11 -11 -11 -10 -10 -10 -11 -11 -10 -10 -9 -10 -11 -11 -11 -12 -11 -11 -11
-13 -13 -13 -13 -13 -13 -13 -12 -13 -13 -12 -12 -11 -12 -12 -12 -11 -11 -11 -11 -11 -11 -12 -11 -11 -11 -11 -11 -11 -11 -11 -11 -11 -11 -11 -10 -11 -9 -10 -11 -12 -12 -12 -12 -12
-15 -14 -14 -14 -13 -13 -13 -13 -13 -13 -12 -12 -12 -11 -12 -12 -12 -11 -11 -11 -11 -11 -11 -11 -11 -11 -11 -11 -11 -11 -11 -11 -11 -11 -11 -10 -11 -10 -10 -11 -11 -11 -11 -12 -12
-15 -15 -15 -14 -14 -14 -14 -14 -13 -13 -12 -13 -13 -12 -12 -12 -12 -12 -12 -11 -11 -11 -11 -11 -12 -11 -11 -11 -11 -11 -11 -11 -11 -10 -10 -11 -11 -10 -11 -11 -11 -11 -11 -12 -12
-16 -16 -15 -15 -15 -15 -15 -14 -13 -12 -13 -13 -13 -13 -13 -12 -12 -12 -12 -12 -12 -12 -12 -12 -12 -12 -12 -12 -12 -11 -12 -12 -11 -11 -11 -10 -10 -10 -10 -11 -11 -11 -12 -12 -12
-16 -16 -16 -16 -16 -16 -15 -14 -13 -13 -13 -13 -14 -14 -13 -13 -13 -13 -13 -13 -13 -13 -13 -12 -12 -12 -12 -12 -12 -12 -12 -12 -12 -11 -11 -10 -10 -10 -11 -11 -11 -11 -12 -12 -12
-16 -17 -17 -17 -16 -16 -16 -14 -14 -14 -14 -14 -14 -14 -14 -14 -14 -13 -13 -13 -13 -14 -14 -13 -13 -13 -12 -13 -13 -13 -13 -13 -13 -12 -11 -10 -10 -11 -11 -11 -11 -13 -13 -13 -13
-17 -17 -17 -17 -17 -17 -15 -15 -14 -15 -15 -15 -15 -15 -14 -14 -14 -14 -14 -14 -14 -14 -14 -14 -13 -13 -13 -13 -13 -13 -13 -13 -13 -13 -12 -11 -11 -12 -12 -12 -12 -13 -14 -14 -14
-18 -17 -17 -18 -18 -17 -16 -16 -15 -16 -16 -16 -16 -15 -15 -15 -15 -15 -14 -15 -15 -14 -14 -14 -14 -13 -13 -13 -13 -13 -13 -13 -14 -13 -14 -13 -10 -12 -12 -12 -13 -13 -14 -14 -15
-19 -18 -17 -18 -17 -17 -17 -17 -16 -16 -16 -16 -16 -16 -16 -16 -16 -15 -15 -15 -15 -15 -15 -15 -14 -14 -13 -13 -13 -13 -14 -14 -14 -14 -13 -14 -11 -13 -13 -12 -13 -14 -14 -14 -15
-20 -19 -18 -18 -18 -17 -17 -17 -17 -16 -16 -17 -17 -17 -17 -16 -16 -16 -16 -16 -15 -15 -15 -16 -15 -14 -14 -14 -14 -14 -14 -14 -15 -14 -14 -13 -13 -14 -14 -13 -13 -14 -14 -14 -15
-20 -20 -19 -19 -19 -18 -17 -17 -17 -17 -17 -17 -17 -17 -17 -17 -17 -17 -16 -16 -16 -16 -16 -16 -15 -15 -15 -15 -15 -14 -14 -14 -15 -15 -15 -13 -15 -15 -14 -14 -14 -14 -14 -14 -14
-21 -21 -20 -20 -19 -19 -19 -18 -18 -18 -18 -18 -18 -17 -17 -17 -17 -16 -17 -16 -16 -16 -16 -16 -15 -15 -15 -16 -16 -15 -15 -15 -15 -15 -16 -16 -16 -15 -15 -14 -15 -15 -14 -14 -14
-23 -22 -21 -20 -20 -19 -19 -19 -18 -18 -18 -18 -18 -18 -18 -18 -17 -17 -17 -16 -16 -16 -16 -16 -16 -16 -16 -16 -16 -16 -15 -16 -16 -16 -16 -17 -16 -16 -16 -15 -15 -15 -15 -15 -15
Height
5845 5847 5850 5853 5855 5856 5857 5858 5858 5859 5859 5859 5859 5859 5858 5857 5856 5855 5854 5854 5852 5852 5853 5854 5855 5855 5856 5856 5857 5858 5860 5860 5861 5862 5862 5862 5862 5863 5864 5864 5865 5865 5865 5866 5865
5840 5844 5845 5848 5851 5853 5853 5855 5855 5856 5856 5856 5856 5856 5856 5855 5854 5852 5851 5850 5850 5850 5851 5852 5852 5853 5854 5855 5856 5857 5858 5859 5859 5860 5860 5861 5861 5861 5862 5862 5863 5863 5863 5863 5863
5835 5838 5840 5842 5845 5847 5849 5850 5851 5852 5852 5853 5853 5853 5853 5853 5851 5849 5848 5847 5847 5848 5849 5850 5850 5851 5852 5854 5855 5856 5857 5857 5857 5858 5858 5858 5859 5859 5860 5859 5860 5860 5860 5861 5861
5828 5832 5834 5836 5838 5841 5843 5845 5846 5847 5849 5850 5850 5850 5850 5850 5850 5847 5846 5845 5845 5845 5847 5848 5849 5849 5850 5851 5852 5854 5855 5855 5855 5855 5855 5856 5856 5856 5856 5857 5857 5857 5858 5858 5859
5820 5824 5827 5829 5832 5835 5837 5839 5841 5842 5844 5845 5846 5847 5847 5847 5846 5845 5844 5844 5844 5843 5845 5846 5847 5847 5848 5849 5849 5850 5851 5852 5852 5852 5852 5852 5852 5853 5852 5853 5853 5854 5856 5856 5857
5812 5815 5819 5823 5825 5828 5831 5834 5835 5837 5839 5840 5841 5843 5844 5844 5843 5842 5843 5843 5843 5842 5842 5844 5844 5845 5846 5846 5847 5847 5847 5848 5849 5849 5849 5849 5849 5849 5850 5850 5850 5851 5852 5853 5853
5803 5806 5810 5814 5819 5822 5824 5827 5829 5831 5834 5835 5836 5838 5840 5841 5839 5839 5840 5840 5840 5840 5840 5841 5841 5842 5842 5842 5843 5843 5843 5844 5845 5845 5846 5846 5846 5846 5846 5846 5847 5848 5848 5848 5849
5793 5797 5802 5805 5810 5813 5817 5820 5822 5825 5827 5830 5832 5833 5835 5835 5835 5836 5836 5836 5837 5837 5837 5838 5838 5839 5838 5838 5838 5838 5839 5839 5840 5841 5842 5842 5843 5843 5843 5843 5844 5844 5844 5844 5844
5782 5787 5792 5797 5801 5805 5809 5812 5815 5818 5821 5823 5825 5827 5830 5830 5831 5831 5832 5833 5833 5833 5834 5834 5835 5835 5835 5834 5834 5834 5835 5835 5835 5835 5837 5838 5839 5838 5839 5839 5840 5839 5839 5838 5837
5773 5777 5782 5786 5791 5796 5800 5803 5806 5810 5813 5816 5818 5821 5823 5824 5825 5826 5827 5828 5829 5829 5829 5830 5831 5831 5831 5831 5831 5830 5830 5830 5830 5831 5831 5833 5835 5832 5834 5835 5835 5835 5834 5834 5833
5761 5767 5772 5777 5781 5786 5791 5795 5799 5801 5804 5807 5811 5812 5815 5817 5819 5820 5821 5822 5823 5824 5824 5824 5826 5827 5825 5825 5825 5825 5825 5825 5824 5824 5825 5826 5829 5828 5827 5831 5831 5830 5830 5829 5828
5749 5755 5761 5766 5771 5776 5780 5785 5789 5792 5795 5797 5800 5803 5807 5809 5812 5814 5815 5816 5816 5818 5818 5820 5820 5818 5820 5820 5820 5820 5819 5819 5818 5818 5819 5820 5824 5823 5821 5825 5823 5823 5823 5823 5821
5736 5742 5748 5754 5759 5764 5769 5773 5778 5782 5784 5790 5791 5795 5799 5801 5805 5806 5806 5808 5809 5811 5812 5813 5815 5813 5813 5813 5813 5813 5812 5811 5811 5811 5811 5813 5817 5816 5816 5816 5816 5816 5815 5814 5813
5722 5729 5734 5741 5748 5753 5758 5762 5766 5772 5771 5779 5781 5784 5790 5793 5796 5799 5798 5800 5801 5803 5804 5806 5807 5807 5807 5807 5806 5806 5805 5803 5802 5802 5803 5805 5806 5812 5811 5810 5808 5807 5806 5806 5804
5709 5716 5722 5728 5734 5741 5746 5751 5756 5763 5754 5766 5770 5777 5782 5784 5789 5790 5790 5790 5792 5794 5797 5798 5799 5799 5799 5800 5799 5801 5798 5797 5795 5792 5793 5796 5791 5808 5805 5806 5803 5800 5798 5797 5797
5696 5701 5707 5714 5721 5726 5732 5739 5745 5751 5737 5748 5759 5766 5772 5775 5777 5780 5782 5783 5783 5785 5787 5788 5789 5791 5792 5792 5791 5792 5791 5789 5786 5785 5781 5790 5784 5792 5800 5799 5798 5795 5792 5790 5788
5682 5688 5694 5699 5706 5712 5718 5724 5731 5729 5734 5739 5748 5756 5761 5765 5767 5769 5771 5773 5773 5775 5777 5777 5779 5780 5782 5783 5782 5782 5782 5779 5776 5776 5775 5778 5774 5782 5788 5790 5790 5789 5786 5785 5782
5669 5675 5679 5687 5693 5698 5703 5709 5711 5715 5723 5732 5735 5744 5749 5753 5755 5757 5759 5761 5763 5764 5764 5765 5769 5769 5772 5772 5772 5770 5773 5773 5765 5765 5765 5765 5763 5773 5773 5774 5776 5779 5778 5776 5773
5654 5662 5667 5673 5679 5684 5689 5691 5698 5706 5712 5717 5725 5728 5736 5741 5743 5745 5747 5750 5751 5753 5754 5753 5754 5757 5758 5759 5760 5760 5761 5762 5756 5754 5751 5753 5755 5757 5757 5760 5763 5763 5762 5762 5760
5638 5648 5655 5659 5665 5670 5673 5679 5685 5691 5697 5705 5711 5715 5720 5726 5730 5733 5734 5736 5740 5741 5741 5741 5741 5744 5746 5747 5748 5750 5749 5748 5748 5745 5739 5741 5741 5740 5742 5745 5745 5742 5743 5742 5743
5621 5631 5642 5645 5650 5654 5657 5664 5673 5679 5685 5690 5696 5700 5705 5709 5714 5717 5719 5724 5725 5727 5729 5729 5729 5730 5731 5735 5737 5735 5735 5737 5736 5734 5732 5731 5730 5730 5731 5732 5731 5725 5725 5726 5725
5603 5611 5627 5630 5635 5640 5647 5654 5660 5668 5670 5675 5679 5685 5690 5694 5698 5702 5706 5710 5711 5713 5715 5716 5714 5716 5719 5719 5720 5721 5724 5724 5720 5722 5720 5717 5715 5722 5722 5721 5718 5713 5712 5712 5710
5588 5595 5606 5615 5619 5629 5635 5641 5644 5650 5657 5661 5663 5670 5676 5680 5682 5686 5691 5696 5698 5699 5699 5702 5702 5703 5702 5705 5706 5706 5709 5708 5706 5705 5704 5704 5708 5708 5709 5709 5700 5697 5698 5697 5697
5575 5583 5590 5597 5606 5616 5622 5625 5630 5634 5639 5647 5652 5653 5659 5663 5668 5669 5675 5678 5682 5684 5684 5684 5687 5690 5692 5691 5690 5690 5690 5687 5685 5685 5690 5689 5694 5697 5692 5687 5688 5686 5684 5682 5679
5560 5569 5577 5584 5591 5600 5607 5612 5615 5619 5624 5629 5634 5640 5643 5647 5652 5654 5657 5662 5665 5668 5669 5669 5671 5672 5677 5675 5674 5674 5675 5673 5669 5670 5663 5679 5672 5676 5674 5671 5671 5671 5668 5664 5663
5550 5556 5563 5571 5578 5586 5592 5595 5600 5605 5610 5614 5616 5619 5626 5629 5633 5639 5643 5645 5647 5650 5651 5651 5653 5654 5659 5657 5654 5655 5657 5656 5654 5653 5648 5653 5653 5650 5653 5653 5651 5648 5649 5648 5645
5540 5545 5550 5555 5564 5572 5577 5582 5588 5593 5595 5599 5602 5604 5607 5611 5616 5619 5622 5626 5628 5631 5632 5634 5635 5633 5636 5636 5634 5636 5638 5636 5634 5631 5632 5631 5630 5632 5633 5631 5627 5626 5625 5625 5623
Wind_Speed
34 32 30 28 25 22 19 17 16 16 16 16 15 15 14 15 17 17 17 15 14 9 7 6 7 6 6 10 11 10 10 10 9 9 8 8 8 8 8 8 7 5 4 3 4
37 35 32 30 27 25 22 20 19 19 19 18 17 17 16 17 18 19 17 14 12 9 8 8 8 7 7 7 9 9 10 10 10 10 10 9 9 10 11 11 8 7 8 7 7
40 38 36 33 31 28 26 24 23 22 22 21 18 17 17 18 20 18 17 13 10 8 9 9 8 8 9 8 9 9 9 10 10 11 12 11 11 11 12 11 9 8 10 9 10
44 42 40 37 35 32 30 28 26 24 24 23 20 18 18 19 16 14 12 9 7 6 9 10 10 10 9 10 11 12 12 13 13 13 13 14 15 14 13 12 10 9 10 10 10
46 46 44 42 38 36 33 31 29 27 26 24 22 19 18 18 16 12 8 7 6 5 8 9 11 11 11 13 12 13 14 15 15 15 14 14 13 12 11 10 11 11 11 12 12
48 48 46 44 42 39 36 35 33 30 27 25 23 22 19 17 13 9 4 5 7 6 5 10 13 13 13 14 15 14 14 14 14 14 14 14 13 12 11 12 12 13 14 15 15
50 49 49 46 44 42 40 37 35 33 30 26 24 23 20 17 13 10 7 7 7 8 7 8 10 12 16 18 18 19 19 19 18 17 16 15 14 14 14 16 16 15 16 18 18
53 52 50 48 47 45 44 41 38 35 32 29 25 25 22 17 15 13 12 10 10 8 8 9 9 11 12 14 17 20 20 19 18 19 18 18 16 15 17 18 18 18 20 21 21
55 54 52 51 49 48 47 44 41 38 35 31 28 27 24 20 18 17 16 15 14 13 12 13 14 13 13 13 14 16 17 19 19 19 19 20 18 20 20 22 21 22 23 23 24
58 57 55 53 51 50 49 46 44 41 38 35 31 31 27 23 22 22 20 19 18 18 16 15 17 16 18 16 16 17 16 18 21 21 21 20 18 24 23 22 23 24 25 25 25
60 59 58 55 54 53 52 49 47 45 42 39 35 34 31 28 24 26 25 24 22 21 20 19 18 19 21 20 19 19 20 19 21 22 22 24 22 24 27 24 24 25 26 28 29
61 61 60 58 56 55 54 53 51 49 46 43 40 37 35 33 28 27 30 30 28 26 24 22 21 25 23 23 23 22 22 22 24 23 22 21 18 21 26 22 26 27 27 28 29
64 62 61 59 58 57 56 53 52 50 50 45 44 41 38 36 33 30 33 34 34 32 29 27 25 27 25 26 26 26 24 24 25 25 25 23 17 17 21 23 25 26 29 30 30
65 66 63 61 59 58 55 54 52 50 53 50 47 44 40 38 37 34 35 35 37 36 34 32 29 29 29 29 30 29 28 27 28 30 29 28 26 16 19 22 25 26 29 28 30
64 65 67 64 61 60 58 56 54 49 57 53 51 45 42 41 39 39 39 38 38 38 38 37 34 33 32 32 33 30 31 32 33 34 34 31 38 13 21 21 23 27 29 30 31
65 65 65 66 66 63 61 59 57 54 64 55 50 46 44 42 41 41 41 42 42 41 40 40 39 37 36 36 36 35 36 37 38 39 43 34 41 31 22 24 25 28 30 31 31
67 66 64 64 64 64 64 62 61 65 62 59 54 50 47 44 42 41 42 43 45 44 42 43 43 42 41 40 40 41 41 41 45 45 48 43 47 39 34 29 28 30 30 31 33
68 67 66 64 63 61 62 64 68 69 66 61 59 54 51 48 45 44 44 45 46 46 46 47 46 44 43 44 45 46 43 43 51 50 49 50 50 43 43 39 38 35 34 34 37
69 67 66 65 62 61 62 65 66 65 64 64 61 59 55 52 51 50 50 49 48 49 51 53 53 50 49 47 47 48 47 46 51 54 55 54 51 50 49 48 44 43 44 39 38
69 67 65 66 63 62 63 65 63 64 63 60 58 58 58 54 53 52 52 53 51 50 52 56 57 55 54 53 52 51 51 51 49 53 58 59 58 58 57 54 51 51 49 48 44
77 70 65 65 66 65 68 68 63 61 60 59 56 56 57 56 55 54 55 53 52 53 53 55 57 60 58 56 53 54 54 53 53 56 58 60 62 62 60 58 56 57 55 53 54
79 81 69 65 68 67 67 66 65 60 59 58 57 57 57 56 57 56 56 54 54 54 55 56 59 60 59 60 59 57 57 57 58 57 58 62 64 60 59 59 59 61 60 60 60
64 72 76 67 69 70 68 65 65 62 60 60 60 58 57 57 58 58 57 56 56 56 58 58 59 61 62 62 62 62 61 61 61 61 64 64 66 62 59 59 63 64 64 63 61
62 64 67 65 64 64 66 68 67 65 65 61 59 60 60 59 58 60 59 59 58 59 59 60 61 62 61 61 64 64 65 66 67 68 65 67 64 61 62 66 67 68 70 71 71
64 68 66 60 60 65 64 60 60 62 64 66 66 67 64 62 59 59 61 60 60 60 60 62 63 62 60 62 64 66 67 68 70 70 74 69 72 70 72 75 76 77 76 77 76
56 59 68 66 61 61 57 61 64 61 58 59 61 64 66 66 66 64 63 65 66 63 61 63 64 65 67 67 71 75 76 77 77 76 78 77 78 80 79 78 78 78 77 77 77
43 44 48 55 59 59 60 63 60 57 56 56 57 57 58 58 60 63 66 68 69 67 66 67 68 70 73 74 75 76 78 78 77 78 77 75 75 74 75 76 78 77 76 77 76
Wind_Direction
221 222 227 234 240 244 251 257 267 274 277 284 288 293 300 303 306 317 328 319 306 279 229 234 240 235 220 205 216 229 227 228 231 238 249 258 261 272 272 269 263 240 217 218 239
224 226 227 233 239 244 250 257 265 272 275 279 283 288 295 301 308 318 324 315 302 273 228 231 236 240 238 226 218 228 236 237 243 248 249 251 251 254 261 266 267 243 232 233 231
226 226 229 231 236 241 246 252 259 265 270 274 278 285 294 301 308 320 324 320 304 275 233 229 238 240 240 236 240 241 253 261 258 259 259 260 263 268 269 271 268 248 238 231 243
228 231 231 232 235 239 243 249 254 260 264 269 275 283 294 302 314 314 324 330 325 285 241 239 243 249 254 247 248 256 266 278 282 273 266 269 274 277 277 270 264 250 246 244 254
230 232 234 235 235 238 242 245 249 254 259 264 272 278 286 297 310 314 323 334 332 307 258 247 249 255 262 264 260 261 268 276 275 272 271 270 275 280 277 272 261 256 255 259 268
231 232 234 236 237 239 241 242 246 251 254 259 266 272 281 292 288 289 293 310 317 316 293 264 257 258 261 266 267 268 271 276 280 276 273 270 267 271 275 272 269 266 268 266 269
232 233 234 236 240 241 242 242 245 248 251 256 261 265 273 281 272 262 251 274 285 285 289 289 283 271 265 261 263 265 269 270 274 279 279 276 267 265 265 268 266 270 270 273 274
234 235 236 236 238 240 243 244 246 247 251 255 260 262 269 278 261 250 248 256 266 272 279 286 291 295 287 279 272 269 269 270 268 269 272 274 267 263 263 263 266 270 274 276 278
235 236 237 238 239 241 243 246 247 248 251 255 256 259 261 269 257 252 251 253 259 264 270 275 278 286 293 293 288 281 277 272 265 269 270 270 268 271 269 272 275 275 274 275 276
238 237 238 238 240 242 244 246 248 249 251 253 252 253 253 255 255 250 250 254 258 259 260 267 273 278 284 290 296 298 293 278 269 266 267 267 268 271 271 275 276 275 275 277 282
239 240 240 240 241 243 246 247 247 249 251 252 249 252 252 251 252 248 249 251 256 258 259 262 268 275 276 282 286 290 293 290 279 276 274 275 273 270 278 284 279 276 280 285 286
239 240 242 242 242 243 245 248 250 250 248 247 246 245 249 249 249 249 248 250 252 256 260 263 261 264 272 275 278 281 285 287 284 283 282 279 277 281 283 291 290 290 287 288 289
239 239 241 241 243 243 245 247 250 251 251 247 247 247 247 246 245 247 248 249 251 253 257 261 262 265 268 271 272 275 278 278 278 279 282 286 284 272 280 285 282 282 284 286 288
239 240 240 241 242 244 245 246 249 250 253 249 248 248 247 250 247 248 251 252 252 256 257 260 262 265 267 268 271 271 272 270 272 277 279 281 284 275 275 275 279 279 279 283 282
237 239 241 241 242 243 246 247 249 249 253 251 248 249 251 254 254 249 254 256 257 256 258 261 263 264 265 268 269 270 273 274 275 274 276 278 279 278 270 274 277 282 288 287 286
238 238 239 241 242 243 245 247 249 249 249 251 250 250 251 252 255 257 258 258 260 261 260 261 263 264 264 265 264 267 271 273 273 276 275 283 283 284 283 282 280 285 286 286 286
241 239 240 241 241 242 243 246 248 247 249 254 253 254 255 255 255 257 257 258 260 261 261 261 262 263 263 264 263 269 271 270 272 278 284 285 283 292 296 289 284 286 286 291 290
244 243 242 242 243 242 243 244 245 247 251 253 258 255 255 257 257 256 257 258 258 259 259 259 258 259 259 261 263 266 268 272 278 279 280 283 288 298 294 293 292 289 290 290 291
244 244 245 244 243 244 243 244 248 250 251 253 256 258 257 254 255 256 257 258 257 258 257 257 256 257 259 261 262 264 267 269 271 276 279 282 284 289 290 293 295 292 289 286 286
241 243 245 246 244 243 244 246 247 249 252 253 255 256 258 257 256 256 256 258 258 258 259 260 262 259 260 261 263 268 269 269 270 273 275 280 286 289 293 294 293 295 295 296 296
242 243 243 246 246 244 245 246 247 249 252 253 253 255 257 257 256 255 256 257 259 259 260 260 261 263 263 264 266 267 268 272 274 274 278 283 283 288 292 294 294 292 293 294 293
242 244 242 245 248 248 248 249 250 249 253 254 253 253 254 256 258 257 257 257 257 258 258 259 261 263 266 267 268 270 272 273 273 277 277 275 275 283 286 287 288 287 289 289 289
239 245 244 244 248 251 251 252 252 253 251 253 256 256 256 256 257 257 259 259 260 260 261 261 261 263 264 266 270 273 273 273 273 273 273 275 277 285 283 281 281 281 282 284 285
233 239 244 243 241 249 250 251 253 254 256 255 255 258 258 257 259 261 261 260 260 261 262 264 264 265 267 270 271 273 275 277 277 275 276 275 277 278 277 276 277 280 281 282 282
236 234 235 239 244 242 245 250 255 255 254 257 258 258 259 261 261 262 263 264 265 265 265 266 268 269 268 270 271 271 271 273 275 278 277 279 280 279 279 276 277 278 278 278 281
238 237 238 242 244 241 240 244 248 247 251 255 257 259 260 262 262 261 262 266 267 268 270 270 270 270 269 271 272 271 272 274 275 275 276 277 278 278 279 279 279 279 279 279 279
247 241 239 239 241 242 241 242 244 245 249 252 255 256 259 261 263 266 267 267 269 270 270 269 271 272 271 271 271 271 272 273 274 275 275 275 274 276 276 277 278 278 277 278 279